[[{"header":{"parameterUnit":"m.s-1","parameterCategory":1,"la1":30.2991,"la2":30.254,"lo1":-89.0895,"lo2":-89.0444,"dy":0.0017,"dx":0.0017,"nx":28,"ny":28,"refTime":"2024-12-26T09:00:00:Z","depth":0,"parameterNumber":2,"parameterNumberName":"U-component_of_WINDS"},"data":[0,0,0,0,0,0,0,0,0,0,0,0,0,0,0,0,0,0,0,0,0,0,0,0,0,0,0,0,0,0,0,0,0,0,0,0,0,0,0,0,0,0,0,0,0,0,0,0,0,0,0,0,0,0,0,0,0,0,-7.1157,-7.1157,0,-7.1152,-7.1152,-7.1152,-7.1,-7.0996,-7.0993,-7.0989,-7.0984,-7.0987,-7.0991,0,0,0,0,0,0,0,0,0,0,0,0,0,-7.1036,-7.1039,-7.1157,-7.1157,-7.1157,-7.1152,-7.1152,-7.1152,-7.1001,-7.0996,-7.0992,-7.0987,-7.0983,-7.0987,-7.0991,0,0,0,0,0,0,0,0,0,0,0,0,0,-7.1066,-7.104,-7.1157,-7.1081,-7.1074,-7.1152,-7.1152,-7.1152,-7.1002,-7.0996,-7.099,-7.0985,-7.0981,-7.0987,-7.0992,-7.1142,0,0,-7.1008,-7.101,0,0,0,0,0,0,0,0,-7.1064,-7.107,-7.1092,-7.1086,-7.1079,-7.1071,-7.1107,-7.1148,-7.1004,-7.1029,-7.0989,-7.0982,-7.1018,-7.1019,-7.1031,-7.1142,-7.1141,-7.1008,-7.1012,-7.1014,-7.1015,0,0,0,0,0,0,0,-7.1062,-7.107,-7.1155,-7.1093,-7.1084,-7.1047,-7.1045,-7.1114,-7.1056,-7.1027,-7.1016,-7.1017,-7.1013,-7.1027,-7.103,-7.1141,-7.1008,-7.1013,-7.1016,-7.1018,-7.1374,-7.138,0,0,0,0,0,0,-7.1071,-7.1069,-7.1155,-7.1154,-7.1057,-7.1054,-7.1052,-7.1079,-7.1055,-7.1046,-7.1022,-7.101,-7.1021,-7.1024,-7.1029,-7.1202,-7.1014,-7.1019,-7.1022,-7.1368,-7.1376,-7.1382,0,0,0,0,0,0,-7.1069,-7.108,-7.1155,-7.1109,-7.1116,-7.1063,-7.1095,-7.1082,-7.1096,-7.1052,-7.1041,-7.1047,-7.1016,-7.1022,-7.1115,-7.12,-7.1021,-7.1026,-7.136,-7.137,-7.1379,-7.155,0,0,0,0,0,0,-7.1066,-7.108,-7.1136,-7.1111,-7.1119,-7.1241,-7.11,-7.1086,-7.1105,-7.109,-7.1072,-7.1064,-7.1012,-7.1108,-7.112,-7.1204,-7.103,-7.1352,-7.1365,-7.1376,-7.1537,-7.1565,-7.1588,0,0,0,0,0,-7.1062,-7.1185,-7.114,-7.1151,-7.1188,-7.1246,-7.125,-7.1188,-7.1113,-7.1169,-7.1141,-7.1064,-7.119,-7.1119,-7.1131,-7.1218,-7.1347,-7.1361,-7.1375,-7.1525,-7.1559,-7.1588,0,0,0,0,0,0,-7.122,-7.118,-7.1129,-7.1247,-7.1252,-7.122,-7.1288,-7.1226,-7.1251,-7.1235,-7.1157,-7.1155,-7.126,-7.1248,-7.117,-7.1362,-7.1255,-7.1272,-7.1365,-7.1397,-7.1422,-7.1421,-7.1034,0,0,0,0,0,-7.1269,-7.132,-7.1282,-7.139,-7.1394,-7.1342,-7.1365,-7.1317,-7.1318,-7.1318,-7.1297,-7.1301,-7.1341,-7.1368,-7.1403,-7.1536,-7.1529,-7.1602,-7.1628,-7.1649,-7.1664,-7.1733,-7.1764,-7.1429,-7.1429,-7.1428,0,0,-7.1369,-7.1354,-7.139,-7.1421,-7.1418,-7.1472,-7.1344,-7.1406,-7.1446,-7.1328,-7.1413,-7.1399,-7.1398,-7.1511,-7.156,-7.1505,-7.1756,-7.1667,-7.1685,-7.1688,-7.1751,-7.1782,-7.1811,-7.1438,-7.1437,-7.1435,0,0,-7.158,-7.1574,-7.1662,-7.1663,-7.1661,-7.1626,-7.1648,-7.1627,-7.1612,-7.1697,-7.161,-7.1656,-7.1727,-7.173,-7.1741,-7.1956,-7.1886,-7.197,-7.2102,-7.2171,-7.2197,-7.222,-7.2295,-7.2323,-7.1985,-7.1986,-7.1986,0,-7.1704,-7.1782,-7.1716,-7.1784,-7.18,-7.1698,-7.1787,-7.1791,-7.18,-7.1814,-7.1753,-7.184,-7.1832,-7.1944,-7.1997,-7.201,-7.2032,-7.1969,-7.2199,-7.2221,-7.2241,-7.2312,-7.234,-7.1996,-7.1995,-7.1994,-7.1993,0,-7.1935,-7.1991,-7.2063,-7.2075,-7.21,-7.2179,-7.2124,-7.2158,-7.2109,-7.2081,-7.2169,-7.2157,-7.2187,-7.2211,-7.2164,-7.2317,-7.2283,-7.2212,-7.2102,-7.2284,-7.2349,-7.2376,-7.201,-7.2006,-7.2004,-7.2001,0,0,-7.224,-7.2217,-7.2244,-7.2249,-7.2241,-7.2282,-7.2358,-7.2387,-7.2416,-7.2428,-7.2488,-7.2552,-7.2486,-7.2499,-7.2452,-7.2512,-7.2681,-7.2433,-7.2432,-7.2477,-7.2848,-7.2899,-7.2931,-7.2637,-7.2642,-7.2646,-7.2847,0,-7.2442,-7.2567,-7.2511,-7.2643,-7.2693,-7.2598,-7.2663,-7.2666,-7.2642,-7.2682,-7.2656,-7.2701,-7.2613,-7.2619,-7.2675,-7.2649,-7.2754,-7.2634,-7.269,-7.2693,-7.269,-7.2965,-7.3019,-7.321,-7.2872,-7.2877,-7.288,0,-7.2692,-7.2714,-7.2851,-7.2834,-7.2853,-7.2913,-7.2936,-7.2976,-7.2977,-7.2956,-7.2972,-7.2911,-7.2984,-7.2878,-7.2976,-7.2896,-7.2916,-7.2908,-7.2914,-7.2913,-7.2795,-7.297,-7.3269,-7.3297,-7.2919,-7.2916,-7.2913,0,-7.2898,-7.2963,-7.3052,-7.306,-7.3043,-7.3087,-7.3082,-7.3078,-7.31,-7.3121,-7.3134,-7.3164,-7.318,-7.3205,-7.3154,-7.3082,-7.3259,-7.3149,-7.3242,-7.3244,-7.328,-7.3278,-7.3584,-7.33,-7.33,-7.3299,-7.3299,0,-7.3126,-7.3213,-7.3144,-7.3199,-7.3294,-7.323,-7.3326,-7.3311,-7.3309,-7.3359,-7.328,-7.3329,-7.3261,-7.3304,-7.3266,-7.3352,-7.3361,-7.3345,-7.3333,-7.335,-7.3352,-7.3359,-7.3343,-7.3307,-7.3305,-7.3304,-7.3302,0,-7.337,-7.3328,-7.3419,-7.3398,-7.3394,-7.3465,-7.3446,-7.3496,-7.3469,-7.3534,-7.3545,-7.3502,-7.3548,-7.3502,-7.3545,-7.352,-7.3635,-7.3606,-7.3634,-7.3625,-7.3719,-7.371,-7.4038,-7.4077,-7.3772,-7.3775,-7.3777,0,-7.3516,-7.3581,-7.3567,-7.3595,-7.3595,-7.3642,-7.3665,-7.3606,-7.3632,-7.364,-7.3689,-7.3729,-7.3757,-7.3836,-7.3809,-7.3842,-7.381,-7.3924,-7.3814,-7.383,-7.3809,-7.3804,-7.3809,-7.3944,-7.3948,-7.3951,-7.3953,0,-7.378,-7.3757,-7.3792,-7.3821,-7.385,-7.387,-7.3884,-7.3912,-7.3851,-7.3885,-7.3932,-7.3954,-7.3999,-7.404,-7.4065,-7.406,-7.3997,-7.3989,-7.4011,-7.4027,-7.404,-7.4031,-7.3691,-7.398,-7.3977,-7.3975,-7.3974,-7.3973,-7.3977,-7.403,-7.4028,-7.4071,-7.4076,-7.4091,-7.4137,-7.4116,-7.4154,-7.4186,-7.415,-7.4207,-7.4208,-7.4236,-7.4239,-7.4282,-7.4234,-7.4268,-7.4276,-7.4284,-7.4297,-7.4037,-7.4287,-7.4286,-7.4286,-7.4285,-7.4284,0,-7.4234,-7.4229,-7.4269,-7.4291,-7.4325,-7.4265,-7.4278,-7.431,-7.4361,-7.4368,-7.4398,-7.4452,-7.4492,-7.4469,-7.4503,-7.4542,-7.4514,-7.4553,-7.4547,-7.4547,-7.4339,-7.4314,-7.4575,-7.4575,-7.4575,-7.4575,-7.4575,-7.4575,-7.4371,-7.4457,-7.4434,-7.4522,-7.4516,-7.4572,-7.4584,-7.4598,-7.4603,-7.4667,-7.47,-7.4686,-7.468,-7.4714,-7.4747,-7.474,-7.4754,-7.4803,-7.4785,-7.459,-7.4562,-7.4534,-7.451,-7.4808,-7.4808,-7.4988,-7.499,-7.4991]},{"header":{"parameterUnit":"m.s-1","parameterCategory":1,"la1":30.2991,"la2":30.254,"lo1":-89.0895,"lo2":-89.0444,"dy":0.0017,"dx":0.0017,"nx":28,"ny":28,"refTime":"2024-12-26T09:00:00:Z","depth":0,"parameterNumber":3,"parameterNumberName":"V-component_of_WINDS"},"data":[0,0,0,0,0,0,0,0,0,0,0,0,0,0,0,0,0,0,0,0,0,0,0,0,0,0,0,0,0,0,0,0,0,0,0,0,0,0,0,0,0,0,0,0,0,0,0,0,0,0,0,0,0,0,0,0,0,0,-0.1618,-0.1618,0,-0.1597,-0.1597,-0.1597,-0.1572,-0.1571,-0.1571,-0.1571,-0.1549,-0.1549,-0.1548,0,0,0,0,0,0,0,0,0,0,0,0,0,-0.1635,-0.1634,-0.1618,-0.1618,-0.1618,-0.1597,-0.1597,-0.1597,-0.1572,-0.1571,-0.1571,-0.157,-0.1549,-0.1549,-0.1548,0,0,0,0,0,0,0,0,0,0,0,0,0,-0.1622,-0.1634,-0.1618,-0.1603,-0.1601,-0.1597,-0.1597,-0.1597,-0.1572,-0.1571,-0.1571,-0.157,-0.1549,-0.1549,-0.1548,-0.1558,0,0,-0.1547,-0.1547,0,0,0,0,0,0,0,0,-0.1623,-0.1621,-0.1605,-0.1604,-0.1602,-0.1587,-0.1595,-0.1584,-0.1572,-0.1583,-0.1571,-0.157,-0.1562,-0.156,-0.1558,-0.1557,-0.1556,-0.1547,-0.1547,-0.1547,-0.1547,0,0,0,0,0,0,0,-0.1624,-0.1622,-0.161,-0.1605,-0.1603,-0.1596,-0.1594,-0.1593,-0.1576,-0.1582,-0.158,-0.1578,-0.1561,-0.1558,-0.1557,-0.1556,-0.1547,-0.1547,-0.1547,-0.1547,-0.1559,-0.1559,0,0,0,0,0,0,-0.1627,-0.1623,-0.1611,-0.1609,-0.1611,-0.1596,-0.1594,-0.1592,-0.1576,-0.1573,-0.1579,-0.1577,-0.1559,-0.1558,-0.1556,-0.1565,-0.1547,-0.1547,-0.1547,-0.1558,-0.1559,-0.1559,0,0,0,0,0,0,-0.1627,-0.1626,-0.1611,-0.1616,-0.1613,-0.1597,-0.1595,-0.1592,-0.1589,-0.1573,-0.157,-0.1579,-0.1559,-0.1557,-0.1557,-0.1564,-0.1547,-0.1546,-0.1558,-0.1558,-0.1559,-0.1583,0,0,0,0,0,0,-0.1628,-0.1626,-0.1631,-0.1616,-0.1613,-0.1614,-0.1596,-0.1592,-0.1589,-0.1587,-0.1573,-0.157,-0.1558,-0.1558,-0.1557,-0.1563,-0.1546,-0.1557,-0.1558,-0.1559,-0.1581,-0.1584,-0.1587,0,0,0,0,0,-0.1629,-0.1639,-0.1631,-0.163,-0.1618,-0.1614,-0.1612,-0.1598,-0.159,-0.1593,-0.1582,-0.157,-0.1563,-0.1558,-0.1557,-0.1563,-0.1556,-0.1558,-0.1559,-0.158,-0.1584,-0.1587,0,0,0,0,0,0,-0.1655,-0.1637,-0.1628,-0.1634,-0.1625,-0.161,-0.1614,-0.1603,-0.1597,-0.1595,-0.1578,-0.1575,-0.1577,-0.157,-0.1565,-0.157,-0.1558,-0.1559,-0.1574,-0.1578,-0.158,-0.1582,-0.1546,0,0,0,0,0,-0.1662,-0.166,-0.1644,-0.1651,-0.1647,-0.1631,-0.1629,-0.1618,-0.1609,-0.1606,-0.1595,-0.1587,-0.1582,-0.1579,-0.1575,-0.158,-0.1576,-0.1583,-0.1586,-0.1588,-0.1589,-0.1589,-0.1592,-0.1563,-0.1563,-0.1563,0,0,-0.1675,-0.1665,-0.1665,-0.1656,-0.1648,-0.1646,-0.1628,-0.1628,-0.1626,-0.1606,-0.1605,-0.1597,-0.1586,-0.1588,-0.1589,-0.1582,-0.1596,-0.159,-0.1592,-0.1591,-0.1591,-0.1594,-0.1596,-0.1564,-0.1564,-0.1564,0,0,-0.1699,-0.1691,-0.1695,-0.1687,-0.1676,-0.1665,-0.1666,-0.1651,-0.1644,-0.1643,-0.1627,-0.1624,-0.1618,-0.161,-0.1605,-0.1622,-0.161,-0.1621,-0.1635,-0.1635,-0.1638,-0.164,-0.1645,-0.1647,-0.1622,-0.1622,-0.1622,0,-0.1717,-0.1714,-0.1698,-0.1698,-0.1693,-0.1674,-0.1676,-0.167,-0.1657,-0.1654,-0.1647,-0.1636,-0.1628,-0.1627,-0.1631,-0.1628,-0.1627,-0.1623,-0.1639,-0.164,-0.1642,-0.1646,-0.1648,-0.1623,-0.1623,-0.1623,-0.1623,0,-0.1736,-0.1734,-0.1738,-0.1726,-0.1722,-0.1723,-0.1706,-0.1703,-0.1693,-0.1682,-0.168,-0.1668,-0.166,-0.1659,-0.1649,-0.1656,-0.1652,-0.1642,-0.163,-0.1646,-0.165,-0.1652,-0.1625,-0.1625,-0.1624,-0.1624,0,0,-0.1778,-0.1755,-0.1757,-0.175,-0.1734,-0.1732,-0.1731,-0.1722,-0.1719,-0.1711,-0.1709,-0.1702,-0.1692,-0.1686,-0.1675,-0.1675,-0.1687,-0.1665,-0.1664,-0.1669,-0.1693,-0.17,-0.1702,-0.1679,-0.168,-0.168,-0.1693,0,-0.1798,-0.1796,-0.178,-0.1782,-0.1779,-0.1759,-0.1758,-0.1748,-0.1737,-0.1732,-0.172,-0.1715,-0.1703,-0.1699,-0.1699,-0.1686,-0.1692,-0.1685,-0.1677,-0.1677,-0.168,-0.1704,-0.1713,-0.1726,-0.1695,-0.1695,-0.1695,0,-0.1822,-0.1814,-0.1815,-0.1797,-0.1795,-0.1795,-0.1784,-0.178,-0.1767,-0.1759,-0.1751,-0.1738,-0.1734,-0.1723,-0.1717,-0.1712,-0.1708,-0.1701,-0.1701,-0.1699,-0.1687,-0.1703,-0.173,-0.1731,-0.1698,-0.1697,-0.1697,0,-0.1851,-0.184,-0.1838,-0.1833,-0.1813,-0.1813,-0.1804,-0.179,-0.1785,-0.1776,-0.1772,-0.1762,-0.1757,-0.1749,-0.1732,-0.1726,-0.1728,-0.1715,-0.172,-0.1721,-0.1722,-0.1722,-0.1748,-0.172,-0.172,-0.172,-0.172,0,-0.1875,-0.1876,-0.1851,-0.185,-0.185,-0.1831,-0.1832,-0.1821,-0.1809,-0.1805,-0.1787,-0.1784,-0.1763,-0.1756,-0.1743,-0.174,-0.1738,-0.173,-0.1727,-0.1732,-0.1732,-0.1728,-0.1727,-0.172,-0.172,-0.172,-0.172,0,-0.1907,-0.189,-0.1887,-0.1868,-0.1862,-0.1863,-0.1846,-0.1844,-0.1831,-0.1826,-0.1824,-0.1804,-0.1795,-0.1778,-0.1765,-0.1756,-0.1755,-0.1749,-0.1759,-0.1757,-0.1763,-0.1762,-0.1786,-0.1788,-0.176,-0.176,-0.176,0,-0.1923,-0.1924,-0.1903,-0.1899,-0.1891,-0.1885,-0.1879,-0.1859,-0.1854,-0.1837,-0.1837,-0.1827,-0.1818,-0.1804,-0.1788,-0.1778,-0.1771,-0.178,-0.1769,-0.1773,-0.177,-0.177,-0.1769,-0.1783,-0.1783,-0.1783,-0.1784,0,-0.1954,-0.1945,-0.1937,-0.1925,-0.1919,-0.1909,-0.1898,-0.1895,-0.1873,-0.1868,-0.1858,-0.1851,-0.1836,-0.1826,-0.1812,-0.1803,-0.1789,-0.1787,-0.1787,-0.1792,-0.1798,-0.1794,-0.1765,-0.1787,-0.1786,-0.1786,-0.1786,-0.1786,-0.1978,-0.1976,-0.1961,-0.1952,-0.1941,-0.1931,-0.1927,-0.1914,-0.1905,-0.1892,-0.1881,-0.1872,-0.1856,-0.1837,-0.1827,-0.1819,-0.1813,-0.1814,-0.1814,-0.1815,-0.1816,-0.1799,-0.1817,-0.1817,-0.1817,-0.1817,-0.1817,0,-0.2006,-0.1995,-0.1987,-0.1971,-0.1964,-0.1951,-0.1938,-0.1932,-0.1924,-0.1911,-0.1902,-0.189,-0.1879,-0.1861,-0.1849,-0.1846,-0.1839,-0.1843,-0.1843,-0.184,-0.1823,-0.1823,-0.1848,-0.1848,-0.1848,-0.1848,-0.1848,-0.1848,-0.202,-0.2016,-0.2005,-0.1995,-0.1983,-0.1974,-0.1967,-0.1957,-0.1946,-0.1933,-0.1924,-0.1912,-0.1896,-0.1882,-0.1871,-0.1866,-0.1862,-0.1868,-0.1861,-0.1845,-0.1842,-0.1839,-0.1839,-0.1867,-0.1867,-0.1878,-0.1878,-0.1878]}]]